TimeEST,TemperatureF,Dew PointF,Humidity,Sea Level PressureIn,VisibilityMPH,Wind Direction,Wind SpeedMPH,Gust SpeedMPH,PrecipitationIn,Events,Conditions,WindDirDegrees,DateUTC
12:53 AM,37.9,35.1,89,29.73,10.0,SW,4.6,-,N/A,,Overcast,230,2012-12-11 05:53:00
1:53 AM,37.9,34.0,86,29.73,10.0,Calm,Calm,-,0.00,,Overcast,0,2012-12-11 06:53:00
2:53 AM,37.0,32.0,82,29.76,10.0,NW,6.9,-,N/A,,Overcast,310,2012-12-11 07:53:00
3:34 AM,37.4,32.0,81,29.77,10.0,North,5.8,-,N/A,,Overcast,350,2012-12-11 08:34:00
3:53 AM,37.0,30.9,79,29.79,10.0,NW,3.5,-,N/A,,Overcast,310,2012-12-11 08:53:00
4:53 AM,35.1,32.0,89,29.83,10.0,ESE,6.9,-,N/A,,Overcast,110,2012-12-11 09:53:00
5:53 AM,34.0,32.0,92,29.84,10.0,East,4.6,-,N/A,,Overcast,80,2012-12-11 10:53:00
6:20 AM,33.8,32.0,93,29.84,10.0,Variable,4.6,-,N/A,,Overcast,0,2012-12-11 11:20:00
6:53 AM,34.0,32.0,92,29.89,10.0,ESE,3.5,-,N/A,,Overcast,110,2012-12-11 11:53:00
7:10 AM,33.8,30.2,87,29.88,10.0,Calm,Calm,-,N/A,,Overcast,0,2012-12-11 12:10:00
7:23 AM,33.8,30.2,87,29.89,10.0,Calm,Calm,-,N/A,,Overcast,0,2012-12-11 12:23:00
7:53 AM,35.1,32.0,89,29.91,10.0,Calm,Calm,-,N/A,,Overcast,0,2012-12-11 12:53:00
8:53 AM,36.0,28.9,76,29.93,10.0,Calm,Calm,-,N/A,,Overcast,0,2012-12-11 13:53:00
9:38 AM,37.4,28.4,70,29.93,10.0,West,4.6,-,N/A,,Mostly Cloudy,270,2012-12-11 14:38:00
9:53 AM,37.9,28.9,70,29.96,10.0,Variable,4.6,-,N/A,,Mostly Cloudy,0,2012-12-11 14:53:00
10:13 AM,37.4,28.4,70,29.94,10.0,NNW,5.8,-,N/A,,Overcast,330,2012-12-11 15:13:00
10:21 AM,37.4,28.4,70,29.94,10.0,NNW,6.9,-,N/A,,Overcast,340,2012-12-11 15:21:00
10:53 AM,37.0,27.0,67,29.97,10.0,NW,8.1,-,N/A,,Overcast,310,2012-12-11 15:53:00
11:17 AM,37.4,26.6,65,29.94,10.0,West,8.1,-,N/A,,Overcast,280,2012-12-11 16:17:00
11:25 AM,37.4,26.6,65,29.95,10.0,West,11.5,-,N/A,,Overcast,260,2012-12-11 16:25:00
11:35 AM,37.4,26.6,65,29.95,10.0,Variable,6.9,-,N/A,,Overcast,0,2012-12-11 16:35:00
11:49 AM,37.4,26.6,65,29.95,10.0,WNW,9.2,-,N/A,,Overcast,300,2012-12-11 16:49:00
11:53 AM,37.0,26.1,65,29.97,10.0,WNW,5.8,-,N/A,,Overcast,300,2012-12-11 16:53:00
12:53 PM,37.9,23.0,55,29.98,10.0,West,13.8,19.6,N/A,,Overcast,280,2012-12-11 17:53:00
1:53 PM,37.9,23.0,55,29.99,10.0,West,8.1,-,N/A,,Overcast,280,2012-12-11 18:53:00
2:53 PM,37.0,24.1,59,30.01,10.0,NW,5.8,-,N/A,,Overcast,310,2012-12-11 19:53:00
3:53 PM,37.0,25.0,62,30.04,10.0,NNW,4.6,-,N/A,,Overcast,340,2012-12-11 20:53:00
4:53 PM,36.0,23.0,59,30.07,10.0,WNW,6.9,-,N/A,,Overcast,300,2012-12-11 21:53:00
5:53 PM,32.0,23.0,69,30.10,10.0,WNW,3.5,-,N/A,,Mostly Cloudy,300,2012-12-11 22:53:00
6:53 PM,30.0,24.1,79,30.12,10.0,Calm,Calm,-,N/A,,Partly Cloudy,0,2012-12-11 23:53:00
7:53 PM,28.0,21.9,78,30.15,10.0,Calm,Calm,-,N/A,,Clear,0,2012-12-12 00:53:00
8:53 PM,26.1,23.0,88,30.18,10.0,Calm,Calm,-,N/A,,Scattered Clouds,0,2012-12-12 01:53:00
9:53 PM,27.0,23.0,85,30.19,10.0,Calm,Calm,-,N/A,,Overcast,0,2012-12-12 02:53:00
10:53 PM,27.0,23.0,85,30.20,10.0,Calm,Calm,-,N/A,,Overcast,0,2012-12-12 03:53:00
11:53 PM,25.0,21.9,88,30.20,10.0,Calm,Calm,-,N/A,,Mostly Cloudy,0,2012-12-12 04:53:00